User: anonymous   Login
Location: Newark
(25.0000°N, 73.5000°E)
Time: 03:26:29
(UTC+00:00)
Language:

A-11 Canister half - Orbit

View from above orbital plane
View from above orbital plane
View from above satellite
View from above satellite

Ground track
Ground track

The orbit data is extracted from the following two-line orbital elements,

1 00051U 60009C   21215.49838764 -.00000171  00000-0 -83974-3 0  9996
2 00051  47.2121 152.6564 0108905 308.4850  50.6210 12.18276958714325
Epoch (UTC): 03 August 2021 11:57:40
Eccentricity: 0.0108905
inclination: 47.2121°
perigee height: 1513 km
apogee height: 1687 km
right ascension of ascending node: 152.6564°
argument of perigee: 308.4850°
revolutions per day: 12.18276958
mean anomaly at epoch: 50.6210°
orbit number at epoch: 71432

The dashed part of the orbit path shows where the satellite is in the earth's shadow,  

DLR